SCP
1 1 1 1 1 1 0 0 0 0 0 0 0 0 0 0 0 0 1 1 2 4 5 6 6 5 6 7 7 6 6 6 6 5 5 4 3 3 2 2 2 2 3 3 2 2 1 1 1
1 1 1 1 1 0 0 0 0 0 0 0 0 0 1 1 1 1 1 2 2 4 5 6 6 6 6 7 8 7 6 6 6 6 5 4 3 3 2 2 2 2 3 3 2 2 1 1 1
0 1 1 1 1 0 0 0 0 0 0 0 1 1 1 1 1 1 2 2 3 4 5 6 6 6 6 7 9 8 7 6 6 6 6 5 4 3 2 2 2 2 3 3 3 2 2 1 1
0 1 1 1 0 0 0 0 0 0 0 0 1 1 2 2 2 2 2 3 3 4 6 6 6 6 6 7 8 9 9 7 6 6 6 5 4 3 3 3 3 3 3 3 3 2 2 2 1
0 1 1 1 0 0 0 0 0 0 0 1 1 2 2 2 2 3 3 3 3 5 6 6 6 7 7 7 7 9 10 9 7 6 6 5 5 4 3 3 4 4 3 3 3 3 2 2 2
1 1 1 0 0 0 0 0 0 0 0 1 1 2 3 3 3 3 4 4 4 5 6 6 6 7 7 6 6 7 9 9 8 7 6 6 5 4 4 4 4 4 4 4 4 3 2 2 2
1 1 1 0 0 0 0 0 0 0 0 1 2 3 4 4 4 4 5 5 5 6 7 7 6 6 6 5 5 5 7 8 8 8 7 6 5 5 4 4 4 4 4 4 4 3 3 3 2
1 0 0 0 0 0 0 0 0 0 0 1 2 3 5 5 5 5 6 6 6 7 8 7 6 5 5 5 4 4 5 6 7 7 6 5 5 5 4 4 3 3 4 4 4 4 3 3 3
0 0 0 0 0 0 0 0 0 0 0 1 2 5 6 6 6 6 6 6 7 7 7 7 6 5 5 5 4 4 4 5 5 5 5 4 5 5 4 3 3 3 4 4 4 4 4 3 3
0 0 0 0 0 0 0 0 0 0 1 2 4 6 7 7 6 5 6 6 7 7 7 6 6 5 5 5 4 4 4 4 4 4 4 4 4 3 3 3 3 3 3 3 3 4 4 3 3
0 0 0 0 0 0 0 0 0 0 1 2 4 6 7 7 5 5 5 7 8 8 7 7 6 6 6 5 4 4 3 3 3 3 3 3 3 2 2 2 3 2 2 3 3 3 4 3 2
0 0 0 0 0 0 0 0 0 0 1 2 4 6 6 6 5 5 5 7 8 9 8 7 7 6 6 5 4 3 3 3 3 3 3 2 2 2 2 2 2 2 2 2 2 3 3 3 2
0 0 0 0 0 0 0 0 0 0 1 2 4 6 6 6 5 5 6 6 7 7 8 8 7 6 5 4 3 2 3 3 3 3 3 2 2 2 2 2 2 2 2 2 2 2 2 2 1
0 0 0 0 0 0 0 0 0 0 1 2 4 5 6 6 6 6 6 5 4 5 5 6 6 5 4 3 2 2 2 2 3 3 3 2 2 1 1 1 1 1 2 1 1 2 2 2 1
0 0 0 0 0 0 0 0 0 0 1 2 3 4 5 6 6 6 5 4 3 3 3 4 5 4 3 3 2 2 1 1 2 3 2 2 1 1 1 1 1 1 1 1 1 1 2 1 1
0 0 0 0 0 0 0 0 0 0 1 2 3 4 5 6 6 6 4 3 2 3 3 3 3 3 2 2 2 2 1 1 2 2 2 1 1 1 1 1 1 1 1 1 1 1 1 1 1
0 0 0 0 0 0 0 0 0 0 1 2 2 3 4 5 6 5 4 2 2 2 2 2 2 2 2 2 2 2 1 1 1 1 1 1 1 1 1 1 1 1 1 0 0 1 1 1 1
0 0 0 0 0 0 0 0 0 0 1 2 2 3 4 5 5 4 4 3 2 2 2 2 2 2 2 2 2 2 1 1 1 1 1 0 0 1 1 1 1 1 0 0 0 0 0 1 1
0 0 0 0 0 0 0 0 0 0 1 1 2 3 3 4 4 4 4 4 3 2 2 2 2 2 2 2 2 2 1 1 1 1 0 0 0 0 1 1 1 1 1 0 0 0 0 0 1
0 0 0 0 0 0 0 0 0 0 0 1 2 2 3 3 4 3 4 4 4 3 2 2 2 2 2 2 2 2 2 1 1 1 1 0 0 0 0 1 1 1 1 1 0 0 0 0 0
0 0 0 0 0 0 0 0 0 0 0 1 2 2 2 2 3 2 2 3 4 3 3 2 2 2 2 2 2 2 2 2 1 1 1 1 0 0 0 0 1 1 1 1 0 0 0 0 0
0 0 0 0 0 0 0 0 0 0 0 1 2 1 1 1 2 1 1 2 3 4 4 3 3 2 2 2 2 2 2 2 2 2 1 1 1 0 0 0 0 1 1 1 0 0 0 0 0
0 0 0 0 0 0 0 0 0 0 0 1 1 1 1 1 1 1 0 1 2 4 4 4 3 3 2 2 2 2 2 2 2 2 2 1 1 1 0 0 0 1 1 1 0 0 0 0 0
0 0 0 0 0 0 0 0 0 0 0 1 1 0 0 0 0 0 0 0 1 2 3 4 4 4 3 3 2 2 2 2 2 2 2 1 1 1 1 1 1 1 1 1 0 0 0 0 0
0 0 0 0 0 0 0 0 0 0 0 0 0 0 0 0 0 0 0 0 0 1 2 3 4 4 4 3 3 2 2 2 2 2 2 2 1 1 1 1 1 1 1 0 0 0 0 0 0
0 0 0 0 0 0 0 0 0 0 0 0 0 0 0 0 0 0 0 0 0 0 0 1 2 3 3 3 3 2 2 2 2 2 2 1 1 1 1 1 1 1 1 0 0 0 0 0 0
0 0 0 0 0 0 0 0 0 0 0 0 0 0 0 0 0 0 0 0 0 0 0 0 1 2 2 3 3 3 2 2 2 2 2 1 1 1 1 1 1 1 1 1 0 0 0 0 0
0 0 0 0 0 0 0 0 0 0 0 0 0 0 0 0 0 0 0 0 0 0 0 0 1 1 1 2 2 2 2 2 2 2 2 1 1 1 1 1 1 1 1 1 1 0 0 0 0
0 0 0 0 0 0 0 0 0 0 0 0 0 0 0 0 0 0 0 0 0 0 0 0 1 1 1 1 1 2 2 2 2 2 1 1 1 1 1 1 1 1 1 1 1 0 0 0 0
0 0 0 0 0 0 0 0 0 0 0 0 0 0 0 0 0 0 0 0 0 0 0 0 0 1 1 0 0 1 2 2 2 1 1 1 1 1 1 1 1 1 1 1 1 0 0 0 0
Wind_Speed
8 4 2 3 5 3 4 4 2 1 2 2 1 2 4 4 4 3 2 1 1 3 4 6 7 8 8 9 10 10 10 10 10 10 10 10 10 10 10 10 10 9 9 9 10 10 10 10 10
3 2 4 4 4 2 6 4 3 3 3 2 1 0 1 2 1 0 1 2 1 3 4 5 6 7 8 9 10 10 10 9 9 9 10 10 10 10 10 10 9 9 9 9 9 9 9 10 10
2 3 3 3 3 7 5 2 4 3 2 0 1 1 1 2 1 1 2 1 2 3 3 4 6 7 8 9 10 10 9 9 9 9 9 9 10 9 9 9 9 9 8 8 9 9 9 10 10
3 3 3 2 6 6 4 2 2 2 3 2 1 2 1 1 1 2 1 2 3 2 2 3 5 6 7 8 9 10 9 9 9 9 9 9 9 9 9 8 8 8 8 8 8 9 9 9 9
4 3 2 3 7 5 3 2 1 1 2 1 0 2 3 2 2 2 1 2 3 2 2 2 4 6 7 6 7 9 9 9 9 8 8 8 8 8 8 8 8 8 8 8 8 9 8 8 8
4 2 3 6 7 4 3 2 1 1 2 2 0 2 4 2 3 2 1 1 1 2 2 2 3 3 5 6 6 7 8 9 9 8 8 7 8 8 8 7 7 7 8 8 8 8 8 7 7
3 2 4 4 4 4 3 1 1 1 2 3 1 1 4 3 3 2 1 1 1 2 1 1 2 2 2 4 5 5 6 7 8 8 7 7 7 7 7 7 7 8 8 7 7 7 7 7 7
3 2 2 4 5 6 3 1 1 1 3 2 1 2 4 4 4 3 2 2 2 2 1 1 1 2 1 2 3 4 4 4 6 6 6 6 6 6 6 6 7 7 7 7 7 7 7 7 6
2 2 4 6 5 4 1 1 2 1 1 2 2 3 4 2 1 2 2 1 1 0 0 0 0 1 1 1 2 3 4 4 4 4 5 5 3 3 3 4 6 7 7 7 7 7 7 7 6
3 3 5 2 2 2 3 3 2 1 3 3 4 4 2 1 1 2 2 2 2 2 1 1 1 1 1 1 2 2 2 3 2 3 4 3 3 2 3 3 5 6 6 6 6 7 6 5 3
1 3 2 2 3 2 3 3 2 2 5 6 6 5 2 1 2 3 4 4 4 3 2 1 1 1 1 1 1 1 2 2 2 3 4 3 3 2 2 2 2 3 4 3 4 4 2 2 2
1 2 2 2 2 2 3 3 3 5 8 6 6 5 4 4 4 5 4 4 3 3 2 2 1 1 1 1 1 1 2 2 2 2 4 4 2 2 2 1 1 2 2 3 2 2 3 2 2
1 2 3 3 3 3 4 5 6 7 7 5 4 4 5 6 5 5 4 4 4 3 3 2 1 1 1 1 1 1 2 2 2 2 3 4 3 3 2 2 2 2 2 3 3 3 3 2 2
1 2 3 4 3 3 4 7 4 7 5 3 2 3 4 5 5 4 4 4 4 4 3 2 2 1 1 1 1 1 1 1 2 2 2 4 4 3 2 2 2 2 2 2 3 3 3 2 2
1 1 4 3 2 2 2 7 6 7 4 3 3 4 4 4 4 4 5 5 5 4 3 2 2 1 1 1 1 0 1 2 2 2 2 3 4 4 3 2 1 1 2 2 2 2 2 2 2
1 2 3 3 2 2 1 8 6 4 3 4 4 4 5 4 4 4 4 4 3 3 2 2 2 1 1 1 1 1 0 1 1 1 2 2 3 4 4 2 2 1 2 2 2 2 2 2 2
3 1 4 5 2 1 2 7 7 4 3 5 5 5 5 5 4 4 3 4 3 3 2 2 2 2 1 1 0 0 0 1 1 1 2 2 2 3 4 3 2 2 2 2 2 2 2 3 2
3 3 4 5 3 2 4 8 9 5 3 5 5 5 5 4 4 4 3 3 2 2 2 2 1 1 1 1 1 0 0 0 1 1 2 2 2 2 3 3 3 3 2 2 2 1 1 2 2
3 3 6 6 4 3 6 9 10 6 3 5 5 5 5 5 4 2 2 3 1 1 2 2 1 1 1 1 1 1 1 1 1 1 2 2 2 2 3 3 3 3 3 3 4 2 2 1 2
3 4 5 5 2 3 6 9 7 5 3 3 3 4 5 5 5 3 3 2 0 1 1 1 1 1 1 1 1 1 1 1 1 1 1 2 2 2 2 3 3 3 3 4 4 3 2 1 2
3 4 4 5 5 2 4 7 4 3 1 3 3 3 4 4 4 4 3 2 0 0 1 1 1 1 1 1 0 0 1 1 0 1 1 1 2 2 2 3 3 3 4 4 4 5 4 3 2
4 3 4 4 3 4 2 5 5 3 3 4 5 5 5 5 4 4 3 2 1 1 0 0 0 0 1 1 1 2 2 1 2 1 1 1 2 2 2 3 3 3 3 4 4 4 3 4 3
3 4 3 2 1 3 1 3 7 3 4 5 5 6 6 5 4 4 4 2 1 0 0 1 1 1 0 1 1 1 1 1 0 0 1 1 1 2 2 3 3 3 2 4 4 3 3 3 4
2 2 2 2 2 3 3 3 7 2 3 5 6 6 6 5 5 5 4 2 2 1 1 1 1 1 1 1 1 1 1 1 1 1 1 1 1 1 3 3 3 3 3 4 4 4 4 4 4
3 3 4 5 3 5 1 2 7 4 3 3 5 7 7 5 5 5 5 4 3 2 2 1 0 1 1 1 1 1 2 2 3 3 3 2 2 2 3 3 3 3 3 4 3 4 4 4 4
1 2 3 2 4 5 2 5 6 3 3 3 3 4 5 6 6 5 5 4 3 2 2 2 1 2 1 1 2 1 1 1 2 2 2 3 2 3 3 3 3 3 3 3 3 3 4 3 4
1 1 1 2 1 4 5 6 7 3 5 6 6 6 6 6 7 6 5 4 3 3 2 2 2 2 2 2 2 1 1 2 2 2 2 2 2 2 2 2 2 3 3 3 3 3 3 3 4
1 2 3 2 1 4 6 5 4 6 6 7 7 7 7 7 6 6 5 4 4 3 2 3 3 3 3 2 1 2 1 1 1 1 2 2 2 2 2 2 2 3 3 3 3 3 3 4 3
2 2 2 1 1 2 5 7 3 3 3 4 6 7 7 7 6 6 5 4 4 3 3 3 3 4 3 3 2 2 2 1 1 1 1 2 1 1 2 2 2 3 3 3 3 3 4 4 4
1 2 3 1 3 2 3 8 2 2 3 3 5 7 6 6 5 5 5 4 4 4 3 3 3 3 3 3 2 2 2 1 1 1 2 2 1 1 2 2 2 2 2 3 3 4 3 4 4
Wind_Direction
335 350 46 58 61 62 233 239 228 259 259 253 257 193 175 180 177 210 305 99 78 148 162 159 154 155 149 147 146 143 138 135 132 131 129 128 127 128 126 122 121 120 117 116 119 117 115 113 111
334 1 51 66 112 205 248 229 228 232 241 286 318 77 112 242 279 48 338 316 118 145 156 157 150 155 152 149 145 144 142 141 137 134 134 134 132 131 129 126 124 121 118 116 114 116 117 116 113
1 46 83 92 165 199 227 230 232 275 276 7 349 335 204 246 294 244 277 227 112 135 143 158 151 151 154 153 150 147 143 143 141 139 137 138 136 135 133 130 127 125 121 117 115 115 119 118 114
50 51 63 118 217 221 217 242 249 309 330 357 52 317 290 304 252 269 266 118 103 125 139 155 153 154 151 155 155 151 150 148 142 140 143 141 140 139 137 134 130 127 125 122 119 119 118 115 115
53 84 118 219 233 238 238 265 235 245 272 294 46 270 284 330 360 21 97 112 116 126 136 158 147 158 156 150 158 158 155 150 147 144 143 145 144 142 139 136 132 130 128 123 122 121 118 118 117
57 75 161 223 235 252 254 262 244 271 281 305 252 248 265 331 16 19 49 91 105 119 139 151 142 138 161 156 151 160 160 155 152 151 149 146 144 143 143 142 138 136 135 129 124 123 124 121 122
105 123 205 224 239 254 249 263 195 262 276 268 232 226 279 328 343 4 11 56 68 78 72 127 146 132 139 154 155 151 159 161 158 156 153 149 144 143 147 147 146 142 137 131 131 131 130 125 123
118 115 219 235 235 245 256 293 237 203 256 270 161 190 258 291 329 4 25 52 77 76 60 36 135 137 137 166 152 144 137 148 159 155 149 145 144 142 146 148 149 145 140 136 137 138 134 128 121
88 114 220 220 223 249 299 300 301 293 224 261 251 239 263 287 2 51 33 11 49 76 54 48 99 135 132 156 148 138 139 131 133 144 140 136 140 141 140 148 150 148 145 142 140 137 131 120 116
107 193 228 226 223 257 295 266 270 328 294 277 283 294 305 130 145 163 206 222 231 230 223 173 143 128 160 166 153 155 141 135 132 143 144 141 134 132 128 131 142 146 143 140 139 131 117 101 97
138 208 233 270 278 276 285 288 265 218 261 252 259 274 283 263 223 214 220 215 224 226 236 206 184 169 146 162 157 156 147 145 142 148 142 133 128 125 118 122 126 133 127 123 115 105 100 105 112
160 263 254 270 304 312 283 286 277 231 247 257 247 232 225 239 237 225 232 237 233 225 237 242 192 171 191 148 173 172 157 152 150 161 154 143 141 139 136 138 126 125 134 131 124 124 116 116 120
227 276 281 290 311 293 298 282 271 265 274 280 263 238 225 229 243 239 230 237 229 221 229 239 220 192 200 160 183 191 176 164 156 152 162 152 148 152 144 142 145 138 141 145 142 137 134 132 131
234 262 291 297 291 288 289 288 273 277 297 285 258 244 241 240 244 253 239 235 233 231 230 221 219 224 195 185 193 219 178 161 150 159 169 162 154 155 147 147 149 148 156 158 154 156 150 147 145
239 310 320 309 297 298 320 301 263 278 311 282 261 258 262 263 257 249 244 235 233 236 233 211 210 216 213 208 185 161 206 163 160 162 156 162 154 154 151 151 152 158 151 150 148 145 142 142 141
24 19 314 302 304 289 151 275 284 304 315 283 271 268 268 269 263 268 269 257 242 234 223 214 212 193 208 230 192 177 222 188 159 161 148 154 157 153 148 151 164 158 140 147 164 164 153 152 155
21 314 274 295 290 270 200 260 291 317 300 288 287 278 276 284 287 286 281 260 235 212 203 199 186 177 198 205 183 166 209 238 180 165 150 153 154 154 149 157 167 159 154 160 173 182 170 165 163
268 269 272 277 294 275 247 262 289 303 291 284 292 291 286 276 275 280 290 277 241 200 184 176 154 163 155 143 126 126 72 282 189 167 159 153 155 162 158 165 170 167 167 170 157 180 159 167 166
242 245 268 272 278 278 259 268 281 291 290 293 302 302 292 281 288 293 292 285 275 183 155 154 152 160 127 146 185 203 230 259 197 174 162 162 158 170 182 174 167 172 182 183 173 168 149 175 159
246 263 274 291 301 283 279 277 275 277 266 278 303 310 301 312 322 320 313 298 231 167 169 174 181 173 158 208 220 223 210 216 210 181 165 168 162 172 192 184 182 182 177 179 183 168 155 219 186
272 236 254 282 313 311 315 294 271 291 287 338 341 326 322 316 307 297 295 274 264 170 187 201 206 174 189 219 202 98 70 55 206 166 170 186 181 190 203 185 185 191 187 192 192 181 176 189 223
280 267 262 284 316 300 5 289 276 298 314 335 334 332 322 323 325 308 302 292 270 258 260 266 251 132 183 186 195 176 168 209 241 232 209 208 196 201 200 187 184 199 200 196 201 193 192 182 203
254 302 293 281 222 303 274 246 286 345 320 315 317 323 322 323 324 314 309 278 272 273 37 344 352 343 288 258 218 190 206 225 184 187 185 212 210 208 213 194 190 200 206 207 198 194 197 199 201
286 345 21 50 73 293 249 206 283 301 292 311 321 324 322 326 331 326 328 340 351 2 43 46 356 297 294 292 264 201 203 199 177 216 209 238 247 232 223 215 203 206 207 214 203 198 197 205 204
32 44 13 357 359 264 249 226 258 285 302 310 318 324 326 333 337 337 341 343 354 357 346 350 334 302 305 298 281 240 226 217 206 208 211 215 231 245 232 221 215 213 210 215 207 198 202 204 202
336 110 142 241 267 293 305 252 265 292 323 339 338 327 338 342 342 336 333 331 333 336 332 326 308 294 297 296 284 255 241 235 240 236 228 226 231 238 236 225 219 218 212 215 208 203 206 203 205
84 93 163 148 287 285 281 291 298 317 345 355 357 354 346 340 339 334 336 337 330 330 328 317 311 309 310 300 295 271 263 253 247 251 245 244 246 243 240 232 223 218 213 212 209 210 209 201 207
81 133 82 97 286 288 294 280 280 314 325 337 345 342 334 337 338 338 341 341 331 328 334 338 334 331 323 310 307 312 290 276 269 257 255 258 258 250 240 237 233 233 222 211 210 214 212 205 210
39 57 84 117 183 220 287 278 253 270 301 314 318 321 325 328 331 335 340 341 339 339 342 337 339 340 339 329 323 315 304 291 295 284 278 268 263 252 247 239 235 237 232 221 215 226 211 208 210
172 162 142 167 260 227 255 273 310 318 315 318 316 319 325 326 328 336 340 343 349 344 342 340 335 330 321 323 324 313 305 301 297 296 292 286 281 270 260 254 254 254 242 224 218 231 219 214 214